Location: Utrecht
(52.0907°N, 5.1214°E)
Time: 09:09:59
(UTC+02:00)

KKS-1 - Pass Details

Date: 29 June 2022
Orbit: 634 x 649 km, 98.2° (Epoch: 15 August)

Event Time Altitude Azimuth Distance (km) Brightness Sun altitude
Rises 00:07:04 0° 13° (NNE) 2,982 ? -11.8°
Reaches altitude 10° 00:09:18 10° 11° (NNE) 2,066 ? -11.9°
Maximum altitude 00:13:47 73° 288° (WNW) 684 ? -12.2°
Drops below altitude 10° 00:18:14 10° 204° (SSW) 2,045 ? -12.4°
Enters shadow 00:18:25 - 204° (SSW) 2,122 ? -12.4°
